Home   Weather   Longford   Past weeks
Flag for Ireland

Past Weather in Longford, Ireland — Yesterday and Last 2 Weeks

Now
52 °F

Drizzle. Cloudy.


Feels Like: 51 °F
Forecast: 55 / 44 °F
Wind: 3 mph from South

Location: Mullingar

Current Time: Apr 24, 2019 at 5:42:13 pm

Latest Report: Apr 24, 2019 at 4:00 pm


Visibility: 5 mi

Pressure: 29.15 "Hg

Humidity: 92%

Dew Point: 50 °F

Location of LongfordLocation

Past Weather in Longford — Graph

°F

Longford Temperature Yesterday

Maximum temperature yesterday: 67 °F (at 3:00 pm)
Minimum temperature yesterday: 50 °F (at 5:00 am)
Average temperature yesterday: 57 °F

High & Low Weather Summary for the Past Weeks

 TemperatureHumidityPressure
High69 °F (Apr 20, 3:00 pm)98% (Apr 20, 8:00 am)30.47 "Hg (Apr 20, 8:00 am)
Low37 °F (Apr 10, 7:00 am)41% (Apr 22, 12:00 pm)29.15 "Hg (Apr 24, 3:00 pm)
Average50 °F76%30.02 "Hg
* Reported Apr 9 4:00 pm — Apr 24 4:00 pm, Longford. Weather by CustomWeather, © 2019

Note: Actual official high and low records may vary slightly from our data, if they occured in-between our weather recording intervals... More about our weather records

Advertising

Longford Weather History for the Previous 24 Hours

Scroll right to see more
 ConditionsComfort  
Time TempWeatherWind HumidityBarometerVisibility
4:00 pm
Wed, Apr 24
52 °FDrizzle. Cloudy.3 mph92%29.15 "Hg5 mi
3:00 pm55 °FCool.5 mph84%29.15 "Hg5 mi
2:00 pm55 °FCool.5 mph83%29.18 "Hg4 mi
1:00 pm55 °FCool.5 mph85%29.18 "Hg4 mi
12:00 pm54 °FCool.3 mph84%29.18 "Hg4 mi
11:00 am52 °FCool.5 mph89%29.21 "Hg3 mi
10:00 am51 °FCool.5 mph89%29.21 "Hg3 mi
9:00 am50 °FCool.5 mph89%29.23 "Hg4 mi
8:00 am49 °FCool.5 mph89%29.23 "Hg3 mi
7:00 am49 °FFog.5 mph89%29.23 "Hg4 mi
6:00 am50 °FCool.3 mph90%29.23 "Hg4 mi
5:00 am51 °FCool.3 mph90%29.26 "Hg4 mi
4:00 am51 °FDrizzle. Overcast.3 mph88%29.26 "Hg4 mi
3:00 am51 °FCool.2 mph88%29.29 "Hg4 mi
2:00 am52 °FCool.2 mph87%29.29 "Hg4 mi
1:00 am54 °FCool.2 mph81%29.29 "Hg6 mi
12:00 am55 °FCool.2 mph78%29.29 "Hg11 mi
11:00 pm
Tue, Apr 23
56 °FCool.2 mph71%29.32 "Hg15 mi
10:00 pm58 °FCool.2 mph66%29.32 "Hg15 mi
9:00 pm59 °FCool.2 mph63%29.32 "Hg18 mi
8:00 pm62 °FRefreshingly cool.3 mph59%29.32 "Hg18 mi
7:00 pm64 °FMild.6 mph51%29.29 "Hg19 mi
6:00 pm65 °FMild.5 mph61%29.29 "Hg9 mi
5:00 pm64 °FMild.7 mph61%29.29 "Hg9 mi
Weather by CustomWeather, © 2019

See weather overview